#timestamp,LO_Frequency,Hit,StdDev 
1570352415.0,286047000.9,N
1570352415.9,286047000.9,N
1570352435.8,286046999.0,N
1570352455.6,286046999.4,N
1570352475.4,286046998.6,N
1570352495.3,286046998.9,N
1570352515.1,286046999.3,N
1570352535.9,286046998.9,N
1570352555.7,286046998.9,N
1570352575.5,286046998.8,N
1570352595.4,286046998.8,N
1570352615.2,286046999.3,N
1570352635.0,286047001.1,N
1570352635.9,286047001.1,N
1570352655.8,286046998.6,N
1570352675.6,286047001.2,N
1570352695.5,286046998.9,N
1570352715.3,286046999.1,N
1570352735.1,286046996.9,N
1570352755.9,286046997.9,N
1570352775.7,286046997.9,N
1570352795.6,286046997.2,N
1570352815.4,286046997.0,N
1570352835.2,286046999.3,N
1570352855.1,286046996.5,N
1570352856.0,286046996.5,N
1570352905.3,286046998.0,E
1570352915.2,286046996.7,N
1570352935.1,286046996.5,P
1570352936.0,286046996.5,P
1570352955.8,286046997.2,Y
1570352975.6,286047000.5,P
1570352995.5,286047000.0,N
1570353015.3,286047000.8,N
1570353035.2,286047000.9,N
1570353055.9,286046998.1,N
1570353075.7,286047000.5,N
1570353095.6,286046998.9,N
1570353115.4,286046998.7,N
1570353135.2,286046999.0,N
1570353155.1,286046998.2,N
1570353156.0,286046998.2,N
1570353175.8,286046998.5,N
1570353195.7,286047000.5,N
1570353215.5,286047001.2,N
1570353235.3,286047000.8,N
1570353255.2,286046998.1,N
1570353275.0,286047000.4,N
1570353275.9,286047000.4,N
1570353295.8,286046998.1,N
1570353315.6,286046999.2,N
1570353335.4,286047001.2,N
1570353355.3,286046998.4,N
1570353375.1,286046998.4,N
1570353395.9,286047000.5,N
1570353415.7,286047000.8,N
1570353435.0,286047000.8,N
1570353435.9,286047000.8,N
1570353455.8,286047001.0,N
1570353475.6,286046998.2,N
1570353495.4,286046999.2,N
1570353515.3,286046998.3,N
1570353535.1,286046998.2,N
1570353555.9,286047001.1,N
1570353575.7,286047000.7,N
1570353595.5,286046998.7,N
1570353615.4,286046998.7,N
1570353635.2,286046998.9,N
1570353655.0,286046998.7,N
1570353655.9,286046998.7,N
1570353675.8,286046998.1,N
1570353695.6,286046998.1,N
1570353715.5,286046998.7,N
1570353735.3,286046998.1,N
1570353755.1,286046998.1,N
1570353775.9,286046998.6,N
1570353795.7,286046998.4,N
1570353815.6,286046998.2,N
1570353835.4,286046998.1,N
1570353855.2,286047001.0,N
1570353875.1,286047000.3,N
1570353876.0,286047000.3,N
1570353895.8,286046999.9,N
1570353915.6,286046998.2,N
1570353935.5,286047001.2,N
1570353955.3,286047000.9,N
1570353975.2,286046999.7,N
1570353995.9,286047001.2,N
1570354015.7,286047001.0,N
1570354035.6,286046999.8,N
1570354055.4,286047000.5,N
1570354075.2,286047000.7,N
1570354095.1,286047001.0,N
1570354096.0,286047001.0,N
1570354115.8,286047000.0,N
1570354135.7,286047000.7,N
1570354155.5,286047000.0,N
1570354175.3,286046998.7,N
1570354195.2,286046998.4,N
1570354215.0,286046999.4,N
1570354215.9,286046999.4,N
1570354235.8,286046997.1,N
1570354255.6,286046996.6,N
1570354275.4,286046996.6,N
1570354295.3,286046999.1,N
1570354315.1,286046999.6,N
1570354335.9,286046999.0,N
1570354355.7,286046998.9,N
1570354375.5,286046998.3,N
1570354395.4,286046998.1,N
1570354415.2,286047000.4,N
1570354435.1,286046998.1,N
1570354436.0,286046998.1,N
1570354455.8,286046998.3,N
1570354475.6,286046998.6,N
1570354495.5,286047000.5,N
1570354515.3,286047000.0,N
1570354535.2,286047000.3,N
1570354555.9,286047000.1,N
1570354575.7,286047000.3,N
1570354595.6,286046999.0,N
1570354615.4,286046998.4,N
1570354635.2,286046998.1,N
1570354655.1,286046998.2,N
1570354656.0,286046998.2,N
1570354675.8,286046999.6,N
1570354695.7,286046999.2,N
1570354715.5,286046998.7,N
1570354735.4,286046998.6,N
1570354755.2,286046998.2,N
1570354775.0,286046998.7,N
1570354775.9,286046998.7,N
1570354795.8,286046999.4,N
1570354815.6,286046997.3,Y
1570354835.5,286047001.0,P
1570354855.3,286047000.6,N
1570354875.1,286047000.7,N
1570354895.9,286047001.0,N
1570354915.7,286046999.9,N
1570354935.5,286047002.8,Y
1570354955.4,286047000.2,P
1570354975.2,286047002.4,P
1570354995.1,286047002.0,N
1570354996.0,286047002.0,N
1570355015.8,286047002.0,N
1570355035.6,286047002.8,Y
1570355055.5,286046998.7,P
1570355075.3,286046999.0,N
1570355095.2,286046996.9,N
1570355115.9,286046996.7,N
1570355135.7,286046998.9,N
1570355155.6,286046999.1,N
1570355175.4,286046998.8,N
1570355195.3,286046999.2,N
1570355215.1,286046998.9,N
1570355216.0,286046998.9,N
1570355235.8,286046998.4,N
1570355255.7,286047001.2,N
1570355275.5,286047000.4,N
1570355295.3,286047000.7,N
1570355315.2,286047000.2,N
1570355335.0,286047002.8,N
1570355335.9,286047002.8,N
1570355355.8,286047004.4,N
1570355375.6,286047002.8,N
1570355395.4,286047002.6,N
1570355415.3,286047000.5,N
1570355435.1,286047001.2,N
1570355455.9,286046998.9,N
1570355475.7,286047000.9,N
1570355495.5,286046998.4,N
1570355515.4,286047000.8,N
1570355535.2,286046999.8,N
1570355555.1,286047000.4,N
1570355556.0,286047000.4,N
1570355575.8,286046999.9,N
1570355595.6,286047000.3,N
1570355615.5,286047000.6,N
1570355635.3,286046998.6,N
1570355655.1,286047000.0,N
1570355675.9,286047000.5,N
1570355695.7,286047000.8,N
1570355715.6,286046998.8,N
1570355735.4,286046998.5,N
1570355755.2,286047001.1,N
1570355775.1,286047001.1,N
1570355776.0,286047001.1,N
1570355795.8,286047000.6,N
1570355815.7,286047000.0,N
1570355835.5,286047002.6,N
1570355855.3,286047002.3,N
1570355875.2,286047002.5,N
1570355895.0,286047001.6,N
1570355895.9,286047001.6,N
1570355915.7,286047000.1,N
1570355935.6,286046999.8,N
1570355955.4,286046999.8,N
1570355975.3,286046999.8,N
1570355995.1,286047000.4,N
